Weather in Pryganka

Russia / Altai Krai     53°57′48″N   80°48′24″E
temp.,
°C
wind,
m/s
gust,
m/s
humid.,
%
clouds,
%
prec.,
mm/h
press.,
hPa
HPBL,
m
18 may, tue
tue1801:00+16wsw51179100 3.0 1012229
04:00+16sw6167896 0.5 1009386
07:00+16wsw6157779 0.5 1007337
10:00+21wnw7125612 0.0 1007677
13:00+24wnw7104299 0.0 10071452
16:00+25wnw794062 0.0 10072098
19:00+23wnw464863 0.0 10061544
22:00+18ene3568100 0.1 1006131
19 may, wed
wed1901:00+14ene4792100 4.4 1006344
04:00+13n479598 0.2 1005274
07:00+10nne61088100 0.3 1008584
10:00+10nne6976100 0.0 1009919
13:00+14nne6850100 0.1 10101841
16:00+13n6743100 0.0 10111927
19:00+12n784394 0.0 10121971
22:00+9n51044100 0.0 1013482
20 may, thu
thu2001:00+6nnw395140 0.0 1014253
04:00+5n51159100 0.0 1014388
07:00+4n596233 0.0 1016522
10:00+6n7841100 0.1 10182361
13:00+8n7931100 0.1 10182628
16:00+9nnw7930100 0.0 10192707
19:00+9nnw6634100 0.0 10202132
22:00+6nw2447100 0.0 102276
21 may, fri
fri2101:00+5sw224648 0.0 102114
04:00+3ssw235017 0.0 102240
07:00+4s375568 0.0 1022215
10:00+9s574196 0.0 10221106
13:00+12ssw564187 0.0 10211597
16:00+11sw554998 0.0 10211079
19:00+11wsw235999 0.0 1021548
22:00+10se1169100 0.2 102123
22 may, sat
sat2201:00+8s4888100 1.8 1020331
04:00+8sw41189100 0.3 1018398
07:00+10sw398524 0.3 1018257
10:00+16w3473100 0.3 1017489
13:00+19nw4569100 2.3 10171100
16:00+21n466232 0.1 10161298
19:00+22n4658100 0.4 10161389
22:00+16e23835 0.0 101836